Weather History for Vicksburg, MS

Change the Weather History Date:

Friday, October 11, 2013

  Actual Average Record
Temperature  
Mean Temperature 70 °F 67 °F  
Max Temperature 84 °F 80 °F 91 °F (1997)
Min Temperature 55 °F 54 °F 32 °F (1951)
Degree Days  
Heating Degree Days 0 2  
Month to date heating degree days 9 15  
Since 1 July heating degree days 9 20  
Cooling Degree Days 5 4  
Month to date cooling degree days 83 56  
Year to date cooling degree days 2195 2153  
Growing Degree Days 20 (Base 50)    
Moisture  
Dew Point 62 °F    
Average Humidity 76    
Maximum Humidity 100    
Minimum Humidity 51    
Precipitation  
Precipitation 0.00 in 0.16 in 0.42 in (2001)
Month to date precipitation 0.52 1.54  
Year to date precipitation 54.32 41.00  
Sea Level Pressure  
Sea Level Pressure 30.02 in    
Wind  
Wind Speed 3 mph (SSE)    
Max Wind Speed 10 mph    
Max Gust Speed 15 mph    
Visibility 5 miles    
Events Fog    
T = Trace of Precipitation, MM = Missing Value Source: NWS Daily Summary

Daily Weather History Graph

Daily Weather History Graph

Search for Another Location

Airport:

Trip Planner

Search our weather history database for the weather conditions in past years. The results will help you decide how hot, cold, wet, or windy it might be!

Date:

Astronomy

Oct. 11, 2013 Rise Set
Actual Time 7:05 AM CDT 6:35 PM CDT
Civil Twilight 6:40 AM CDT 7:00 PM CDT
Nautical Twilight 6:12 AM CDT 7:28 PM CDT
Astronomical Twilight 5:43 AM CDT 7:57 PM CDT
Moon 1:36 PM CDT (10/11) No Moon Set
Length of Visible Light 12h 19m
Length of Day
11h 30m
Waxing Crescent, 47% of the Moon is Illuminated
Oct 11
Waxing Crescent
Oct 11
First Quarter
Oct 18
Full
Oct 26
Last Quarter
Nov 3
New

Hourly Weather History & Observations

Time (CDT) Temp. Heat Index Dew Point Humidity Pressure Visibility Wind Dir Wind Speed Gust Speed Precip Events Conditions
12:02 AM 57.2 °F - 57.2 °F 100% 30.01 in 0.8 mi Calm Calm - N/A   Clear
12:44 AM 57.2 °F - 55.4 °F 94% 30.01 in 2.0 mi Calm Calm - N/A   Clear
12:53 AM 57.0 °F - 55.9 °F 96% 30.03 in 1.2 mi Calm Calm - N/A   Clear
1:01 AM 55.4 °F - 55.4 °F 100% 30.00 in 0.5 mi Calm Calm - N/A Fog Fog
1:24 AM 57.2 °F - 55.4 °F 94% 30.00 in 0.2 mi Calm Calm - N/A Fog Fog
1:30 AM 57.2 °F - 57.2 °F 100% 30.00 in 1.5 mi Calm Calm - N/A   Partly Cloudy
1:32 AM 57.2 °F - 55.4 °F 94% 30.00 in 3.0 mi Calm Calm - N/A   Partly Cloudy
1:35 AM 55.4 °F - 55.4 °F 100% 30.00 in 1.8 mi Calm Calm - N/A   Partly Cloudy
1:39 AM 55.4 °F - 55.4 °F 100% 30.00 in 0.8 mi Calm Calm - N/A   Mist
1:47 AM 57.2 °F - 55.4 °F 94% 30.00 in 1.2 mi Calm Calm - N/A   Clear
1:51 AM 55.4 °F - 55.4 °F 100% 30.00 in 3.0 mi Calm Calm - N/A   Clear
1:53 AM 57.0 °F - 55.9 °F 96% 30.02 in 4.0 mi Calm Calm - N/A   Clear
2:53 AM 57.0 °F - 57.0 °F 100% 30.01 in 4.0 mi SSE 4.6 mph - N/A   Clear
3:53 AM 57.0 °F - 55.9 °F 96% 30.01 in 3.0 mi Calm Calm - N/A   Scattered Clouds
4:30 AM 60.8 °F - 60.8 °F 100% 30.00 in 5.0 mi Calm Calm - N/A   Mostly Cloudy
4:39 AM 60.8 °F - 60.8 °F 100% 30.00 in 5.0 mi Calm Calm - N/A   Overcast
4:53 AM 63.0 °F - 62.1 °F 97% 30.03 in 7.0 mi SSE 3.5 mph - N/A   Overcast
5:29 AM 66.2 °F - 66.2 °F 100% 30.02 in 1.8 mi Calm Calm - N/A   Overcast
5:42 AM 66.2 °F - 66.2 °F 100% 30.02 in 3.0 mi Calm Calm - N/A   Overcast
5:53 AM 66.9 °F - 66.0 °F 97% 30.04 in 4.0 mi Calm Calm - N/A   Overcast
6:23 AM 66.2 °F - 66.2 °F 100% 30.04 in 1.8 mi Calm Calm - N/A   Overcast
6:33 AM 66.2 °F - 66.2 °F 100% 30.04 in 0.5 mi Calm Calm - N/A Fog Fog
6:53 AM 66.9 °F - 66.0 °F 97% 30.06 in 0.2 mi Calm Calm - N/A Fog Fog
7:51 AM 66.2 °F - 66.2 °F 100% 30.04 in 1.0 mi South 5.8 mph - N/A   Overcast
7:53 AM 66.9 °F - 66.0 °F 97% 30.07 in 0.8 mi SSE 5.8 mph - N/A   Overcast
8:53 AM 66.9 °F - 66.9 °F 100% 30.08 in 0.2 mi SSE 4.6 mph - N/A Fog Fog
9:25 AM 66.2 °F - 66.2 °F 100% 30.07 in 1.2 mi South 3.5 mph - N/A   Overcast
9:34 AM 66.2 °F - 66.2 °F 100% 30.06 in 3.0 mi South 3.5 mph - N/A   Overcast
9:46 AM 68.0 °F - 66.2 °F 94% 30.07 in 5.0 mi Variable 3.5 mph - N/A   Overcast
9:53 AM 68.0 °F - 66.9 °F 96% 30.09 in 7.0 mi South 4.6 mph - N/A   Mostly Cloudy
10:31 AM 73.4 °F - 68.0 °F 83% 30.07 in 10.0 mi Variable 3.5 mph - N/A   Scattered Clouds
10:53 AM 75.0 °F - 68.0 °F 79% 30.09 in 10.0 mi Variable 4.6 mph - N/A   Clear
11:53 AM 79.0 °F - 66.0 °F 64% 30.07 in 10.0 mi South 5.8 mph - N/A   Scattered Clouds
12:53 PM 81.0 °F 82.7 °F 64.9 °F 58% 30.05 in 10.0 mi Variable 6.9 mph - N/A   Scattered Clouds
1:53 PM 82.0 °F 83.8 °F 64.9 °F 56% 30.02 in 10.0 mi Variable 3.5 mph - N/A   Scattered Clouds
2:53 PM 84.0 °F 85.4 °F 64.0 °F 51% 30.01 in 10.0 mi South 6.9 mph - N/A   Scattered Clouds
3:53 PM 81.0 °F 82.5 °F 64.0 °F 56% 29.99 in 10.0 mi SSW 3.5 mph - N/A   Partly Cloudy
4:53 PM 81.0 °F 82.5 °F 64.0 °F 56% 29.98 in 10.0 mi Calm Calm - N/A   Clear
5:53 PM 79.0 °F - 64.0 °F 60% 29.98 in 10.0 mi South 4.6 mph - N/A   Clear
6:53 PM 69.1 °F - 64.9 °F 87% 29.99 in 10.0 mi Calm Calm - N/A   Clear
7:53 PM 64.9 °F - 62.1 °F 90% 29.99 in 10.0 mi ESE 3.5 mph - N/A   Clear
8:53 PM 64.9 °F - 64.0 °F 97% 29.99 in 10.0 mi Calm Calm - N/A   Clear
9:53 PM 64.0 °F - 63.0 °F 96% 30.01 in 10.0 mi Calm Calm - N/A   Clear
10:53 PM 63.0 °F - 60.1 °F 90% 30.01 in 10.0 mi ESE 3.5 mph - N/A   Clear
11:53 PM 63.0 °F - 61.0 °F 93% 30.01 in 10.0 mi SE 3.5 mph - N/A   Clear